Albion, NE

11:04 AM CST on February 27, 2017 (GMT -0600)
Albion Municipal

Weather History for KBVN - November, 2013

Change the Weather History Date:

Saturday, November 16, 2013

  Actual Average (KOFK) Record (KOFK)
Temperature  
Mean Temperature 46 °F -  
Max Temperature 61 °F 47 °F 76 °F (2016)
Min Temperature 31 °F 24 °F -5 °F (2014)
Degree Days  
Heating Degree Days 19    
Moisture  
Dew Point 28 °F    
Average Humidity 63    
Maximum Humidity 98    
Minimum Humidity 15    
Precipitation  
Precipitation 0.00 in - - ()
Sea Level Pressure  
Sea Level Pressure 29.36 in    
Wind  
Wind Speed 6 mph (SW)    
Max Wind Speed 16 mph    
Max Gust Speed 24 mph    
Visibility 8 miles    
Events Fog    
Averages and records for this station are not official NWS values.
T = Trace of Precipitation, MM = Missing Value Source: NWS Daily Summary

Daily Weather History Graph

Daily Weather History Graph

Search for Another Location

Airport or City:

Trip Planner

Search our weather history database for the weather conditions in past years. The results will help you decide how hot, cold, wet, or windy it might be!

Date:

Astronomy

Nov. 16, 2013 Rise Set
Actual Time 7:23 AM CST 5:10 PM CST
Civil Twilight 6:53 AM CST 5:40 PM CST
Nautical Twilight 6:19 AM CST 6:14 PM CST
Astronomical Twilight 5:46 AM CST 6:47 PM CST
Moon 4:47 PM CST (11/16) 6:19 AM CST (11/16)
Length of Visible Light 10h 47m
Length of Day
9h 47m
Waxing Gibbous, 99% of the Moon is Illuminated
Nov 16
Waxing Gibbous
Nov 17
Full
Nov 25
Last Quarter
Dec 2
New
Dec 9
First Quarter

Hourly Weather History & Observations

Time (CST) Temp. Windchill Dew Point Humidity Pressure Visibility Wind Dir Wind Speed Gust Speed Precip Events Conditions
12:15 AM 37.0 °F 34.5 °F 32.5 °F 84% 29.51 in 10.0 mi SE 3.5 mph - N/A   Clear
12:35 AM 38.1 °F 34.6 °F 33.6 °F 84% 29.50 in 10.0 mi ESE 4.6 mph - N/A   Clear
12:55 AM 37.4 °F 33.8 °F 33.1 °F 84% 29.49 in 10.0 mi ESE 4.6 mph - N/A   Clear
1:15 AM 36.9 °F 30.7 °F 32.9 °F 86% 29.48 in 10.0 mi SE 8.1 mph - N/A   Clear
1:35 AM 36.9 °F 31.4 °F 33.3 °F 87% 29.47 in 10.0 mi ESE 6.9 mph - N/A   Clear
1:55 AM 36.0 °F 29.6 °F 32.9 °F 89% 29.45 in 10.0 mi SE 8.1 mph - N/A   Clear
2:15 AM 35.6 °F 28.6 °F 32.9 °F 90% 29.44 in 10.0 mi SE 9.2 mph - N/A   Clear
2:35 AM 36.3 °F 30.1 °F 33.8 °F 91% 29.43 in 10.0 mi SE 8.1 mph - N/A   Clear
2:55 AM 36.7 °F 32.0 °F 34.3 °F 91% 29.42 in 7.0 mi ESE 5.8 mph - N/A   Clear
3:15 AM 37.4 °F 31.4 °F 35.1 °F 91% 29.41 in 7.0 mi SE 8.1 mph - N/A   Clear
3:35 AM 38.3 °F 33.9 °F 36.0 °F 91% 29.39 in 7.0 mi ESE 5.8 mph - N/A   Clear
3:55 AM 38.3 °F 33.9 °F 35.8 °F 91% 29.38 in 5.0 mi SE 5.8 mph - N/A   Clear
4:15 AM 38.5 °F 33.4 °F 36.7 °F 93% 29.36 in 5.0 mi SE 6.9 mph - N/A   Clear
4:35 AM 39.9 °F 34.5 °F 38.3 °F 94% 29.34 in 5.0 mi SE 8.1 mph - N/A   Clear
4:55 AM 39.7 °F 34.3 °F 37.9 °F 93% 29.33 in 5.0 mi SE 8.1 mph - N/A   Clear
5:15 AM 39.9 °F 37.8 °F 38.3 °F 94% 29.33 in 5.0 mi SSE 3.5 mph - N/A   Clear
5:35 AM 40.1 °F 36.1 °F 38.3 °F 93% 29.32 in 5.0 mi SE 5.8 mph - N/A   Clear
5:55 AM 40.5 °F 38.4 °F 39.0 °F 95% 29.32 in 5.0 mi SE 3.5 mph - N/A   Clear
6:15 AM 41.2 °F - 39.6 °F 94% 29.32 in 5.0 mi Calm Calm - N/A   Scattered Clouds
6:35 AM 41.2 °F 38.2 °F 38.8 °F 91% 29.32 in 7.0 mi SE 4.6 mph - N/A   Scattered Clouds
6:55 AM 40.1 °F 36.1 °F 38.3 °F 93% 29.31 in 4.0 mi SE 5.8 mph - N/A   Clear
7:15 AM 39.9 °F 37.8 °F 38.3 °F 94% 29.31 in 4.0 mi SSE 3.5 mph - N/A   Clear
7:35 AM 38.7 °F 36.3 °F 37.0 °F 94% 29.31 in 0.5 mi South 3.5 mph - N/A Fog Fog
7:55 AM 38.5 °F 35.0 °F 37.4 °F 96% 29.31 in 0.2 mi SSE 4.6 mph - N/A Fog Fog
8:15 AM 39.2 °F 35.9 °F 38.3 °F 97% 29.30 in 0.5 mi South 4.6 mph - N/A Fog Fog
8:35 AM 39.4 °F 36.1 °F 38.8 °F 98% 29.31 in 0.2 mi SSW 4.6 mph - N/A Fog Fog
8:55 AM 40.8 °F 38.8 °F 40.3 °F 98% 29.30 in 3.0 mi SW 3.5 mph - N/A   Overcast
9:15 AM 41.4 °F 36.8 °F 40.8 °F 98% 29.30 in 7.0 mi WSW 6.9 mph - N/A   Mostly Cloudy
9:35 AM 41.5 °F 37.8 °F 40.6 °F 97% 29.31 in 10.0 mi WSW 5.8 mph - N/A   Scattered Clouds
9:55 AM 43.9 °F 39.3 °F 39.9 °F 86% 29.31 in 10.0 mi WSW 8.1 mph - N/A   Scattered Clouds
10:15 AM 46.4 °F 41.9 °F 38.5 °F 74% 29.31 in 10.0 mi WNW 9.2 mph - N/A   Clear
10:35 AM 48.7 °F - 38.1 °F 67% 29.32 in 10.0 mi West 11.5 mph - N/A   Clear
10:55 AM 51.4 °F - 36.5 °F 57% 29.32 in 10.0 mi WNW 11.5 mph - N/A   Clear
11:15 AM 51.8 °F - 35.4 °F 54% 29.32 in 10.0 mi WNW 9.2 mph - N/A   Clear
11:35 AM 56.1 °F - 32.9 °F 41% 29.32 in 10.0 mi West 12.7 mph 17.3 mph N/A   Clear
11:55 AM 57.2 °F - 30.2 °F 36% 29.32 in 10.0 mi WNW 16.1 mph 24.2 mph N/A   Clear
12:15 PM 58.8 °F - 26.2 °F 29% 29.32 in 10.0 mi WNW 16.1 mph 24.2 mph N/A   Clear
12:35 PM 59.4 °F - 23.7 °F 25% 29.31 in 10.0 mi WNW 12.7 mph 21.9 mph N/A   Clear
12:55 PM 60.3 °F - 22.1 °F 23% 29.32 in 10.0 mi West 13.8 mph 20.7 mph N/A   Clear
1:15 PM 61.0 °F - 20.7 °F 21% 29.32 in 10.0 mi West 12.7 mph 21.9 mph N/A   Clear
1:35 PM 61.3 °F - 19.4 °F 20% 29.32 in 10.0 mi West 16.1 mph 23.0 mph N/A   Clear
1:55 PM 61.3 °F - 18.7 °F 19% 29.32 in 10.0 mi West 10.4 mph 20.7 mph N/A   Clear
2:15 PM 61.5 °F - 16.2 °F 17% 29.32 in 10.0 mi West 15.0 mph 24.2 mph N/A   Clear
2:35 PM 61.3 °F - 15.6 °F 17% 29.32 in 10.0 mi West 11.5 mph 21.9 mph N/A   Clear
2:55 PM 61.7 °F - 13.5 °F 15% 29.32 in 10.0 mi West 13.8 mph 21.9 mph N/A   Clear
3:15 PM 60.4 °F - 12.9 °F 16% 29.33 in 10.0 mi West 12.7 mph 17.3 mph N/A   Clear
3:35 PM 60.8 °F - 13.3 °F 16% 29.33 in 10.0 mi West 10.4 mph 16.1 mph N/A   Clear
3:55 PM 59.9 °F - 15.3 °F 18% 29.33 in 10.0 mi West 8.1 mph - N/A   Clear
4:15 PM 59.5 °F - 16.0 °F 18% 29.34 in 10.0 mi West 5.8 mph - N/A   Clear
4:35 PM 57.9 °F - 16.0 °F 19% 29.34 in 10.0 mi West 4.6 mph - N/A   Clear
4:55 PM 55.6 °F - 16.0 °F 21% 29.36 in 10.0 mi West 3.5 mph - N/A   Clear
5:15 PM 52.9 °F - 17.2 °F 25% 29.36 in 10.0 mi Calm Calm - N/A   Clear
5:35 PM 45.7 °F - 18.9 °F 34% 29.37 in 10.0 mi Calm Calm - N/A   Clear
5:55 PM 45.0 °F - 19.2 °F 36% 29.39 in 10.0 mi Calm Calm - N/A   Clear
6:15 PM 44.4 °F - 18.3 °F 35% 29.39 in 10.0 mi Calm Calm - N/A   Scattered Clouds
6:35 PM 43.9 °F - 19.2 °F 37% 29.40 in 10.0 mi Calm Calm - N/A   Clear
6:55 PM 44.6 °F - 18.3 °F 35% 29.41 in 10.0 mi Calm Calm - N/A   Clear
7:15 PM 41.2 °F - 21.0 °F 45% 29.41 in 10.0 mi Calm Calm - N/A   Clear
7:35 PM 39.7 °F - 23.0 °F 51% 29.41 in 10.0 mi Calm Calm - N/A   Clear
7:55 PM 38.5 °F - 22.8 °F 53% 29.41 in 10.0 mi Calm Calm - N/A   Clear
8:15 PM 38.5 °F - 22.6 °F 53% 29.40 in 10.0 mi Calm Calm - N/A   Clear
8:35 PM 37.6 °F - 24.4 °F 59% 29.40 in 10.0 mi Calm Calm - N/A   Clear
8:55 PM 38.3 °F - 22.8 °F 54% 29.39 in 10.0 mi Calm Calm - N/A   Clear
9:15 PM 35.6 °F - 25.3 °F 66% 29.39 in 10.0 mi Calm Calm - N/A   Clear
9:35 PM 35.2 °F 30.3 °F 24.4 °F 65% 29.39 in 10.0 mi NNW 5.8 mph - N/A   Clear
9:55 PM 32.9 °F 28.5 °F 24.1 °F 70% 29.39 in 10.0 mi WNW 4.6 mph - N/A   Scattered Clouds
10:15 PM 31.8 °F 25.4 °F 23.9 °F 73% 29.38 in 10.0 mi NW 6.9 mph - N/A   Clear
10:35 PM 31.1 °F - 24.4 °F 76% 29.39 in 10.0 mi Calm Calm - N/A   Clear
10:55 PM 33.1 °F - 23.7 °F 68% 29.38 in 10.0 mi Calm Calm - N/A   Clear
11:15 PM 33.8 °F 30.8 °F 23.9 °F 67% 29.39 in 10.0 mi NW 3.5 mph - N/A   Clear
11:35 PM 34.7 °F - 24.8 °F 67% 29.39 in 10.0 mi Calm Calm - N/A   Clear
11:55 PM 34.2 °F - 27.3 °F 76% 29.38 in 10.0 mi Calm Calm - N/A   Mostly Cloudy